Flag for Canada Weather past 2 weeks in Peterborough, Ontario, Canada

Now
77 °F

Sunny.


Feels Like: 79 °F
Forecast: N/A
Wind: 9 mph from West

Location: Peterborough Airport

Current Time: Jul 4, 2015 at 6:56:45 PM

Latest Report: Jul 4, 2015 at 6:00 PM


Visibility: 9 mi

Pressure: 29.94 "Hg

Humidity: 47%

Dew point: 55 °F

Location of PeterboroughLocation

Historic Weather in Peterborough — Graph

°F

Peterborough temperature yesterday

Maximum temperature yesterday: 72 °F (at 1:00 PM)
Minimum temperature yesterday: 45 °F (at 6:00 AM)
Average temperature yesterday: 60 °F

Past Weeks' High & Low Weather Summary

 TemperatureHumidityPressure
High79 °F (Jun 21, 2:00 PM)100% (Jun 20, 1:00 AM)30.11 "Hg (Jun 20, 1:00 AM)
Low43 °F (Jun 20, 5:00 AM)33% (Jun 19, 7:00 PM)29.60 "Hg (Jun 23, 6:00 AM)
Average62 °F80%29.91 "Hg
* Reported Jun 19 6:00 PM — Jul 4 6:00 PM, Peterborough, Weather by CustomWeather, © 2015

Note: Actual official high and low records may vary slightly from our data, if they occured in-between our weather recording intervals... More about our weather records

Advertising

Peterborough weather history for previous 24 hours

 ConditionsComfort  
Time TempWeatherWind HumidityBarometerVisibility
6:00 PM
Sat, Jul 4
77 °FSunny.9 mph47%29.94 "Hg9 mi
5:00 PM77 °FSunny.9 mph44%29.94 "Hg9 mi
4:00 PM75 °FPassing clouds.10 mph44%29.94 "Hg9 mi
3:00 PM75 °FSunny.2 mph36%29.94 "Hg9 mi
2:00 PM75 °FSunny.5 mph41%29.94 "Hg9 mi
1:00 PM73 °FSunny.2 mph36%29.95 "Hg9 mi
12:00 PM72 °FSunny.2 mph50%29.96 "Hg9 mi
11:00 AM70 °FSunny.2 mph53%29.95 "Hg9 mi
10:00 AM68 °FSunny.3 mph56%29.95 "Hg9 mi
9:00 AM63 °FSunny.2 mph77%29.95 "Hg9 mi
8:00 AM55 °FPassing clouds.2 mph88%29.95 "Hg9 mi
7:00 AM50 °FSunny.No wind94%29.94 "Hg9 mi
6:00 AM46 °FClear.No wind93%29.94 "Hg9 mi
5:00 AM46 °FClear.5 mph100%29.93 "Hg9 mi
4:00 AM46 °FPassing clouds.No wind100%29.93 "Hg9 mi
3:00 AM48 °FClear.2 mph100%29.93 "Hg9 mi
2:00 AM50 °FPassing clouds.2 mph100%29.94 "Hg9 mi
1:00 AM52 °FPassing clouds.No wind94%29.94 "Hg9 mi
12:00 AM52 °FPassing clouds.No wind100%29.95 "Hg9 mi
11:00 PM
Fri, Jul 3
54 °FClear.No wind94%29.95 "Hg9 mi
10:00 PM55 °FClear.2 mph94%29.95 "Hg9 mi
9:00 PM59 °FSunny.No wind82%29.94 "Hg9 mi
8:00 PM66 °FSunny.3 mph60%29.95 "Hg9 mi
7:00 PM68 °FSunny.6 mph49%29.95 "Hg9 mi
6:00 PM70 °FSunny.7 mph40%29.96 "Hg9 mi
Weather by CustomWeather, © 2015

See weather overviewHow to use our weather pages